Tracking 19562 objects as of 25-Mar-2019
HD Live streaming from Space Station
objects crossing your sky now

COSMOS 2295 (GLONASS)

Track COSMOS 2295 (GLONASS) now!
COSMOS 2295 (GLONASS) is classified as:


NORAD ID: 23396
Int'l Code: 1994-076A
Perigee: 19,033.9 km
Apogee: 19,240.0 km
Inclination: 64.0 °
Period: 675.7 minutes
Semi major axis: 25507 km
RCS: 2.9701 m2 (large)
Launch date: November 20, 1994
Source: Commonwealth of Independent States (former USSR) (CIS)
Launch site: TYURATAM MISSILE AND SPACE COMPLEX (TTMTR)
aabbcc
Your satellite tracking list
Your tracking list is empty




NASA's NSSDC Master Catalog

Two Line Element Set (TLE):
1 23396U 94076A   19082.42741179 +.00000020 +00000-0 +00000-0 0  9996
2 23396 063.9935 160.3863 0040392 194.8762 058.6685 02.13102996189416
Source of the keplerian elements: AFSPC